Current Weather Conditions: station PAGS

sailwx.info

Wind from 110 at 5 knots

Air temperature 6.0° C
Visibility: greater than 8.7 NM
Dewpoint 3.0° C

Last reported at 2015-Mar-30 03:36 UTC.
Time now 2015-Mar-30 04:28 UTC

Location: N 58°25' W 135°44'.
View on Google Maps.

See reports from other nearby stations

  
Tides and Currents Weather Stations Pressure Air Temp Water Temp Dewpoint Dewpoint Depression Visibility Wind Speed Wind Dir Waves Ship Positions
date/time (UTC)wind fromknots sea level pressurealtimeterstation pressurevisibilityair tempwater tempwave heightnotes
2015-Mar-30 03:36 110 5 8.7 6.0
2015-Mar-30 03:16 100 3 8.7 6.0
2015-Mar-30 02:56 090 3 8.7 5.0
2015-Mar-30 02:36 090 3 8.7 6.0
2015-Mar-30 02:16 8.7 6.0
2015-Mar-30 01:56 080 8 8.7 5.0
2015-Mar-30 01:36 8.7 6.0
2015-Mar-30 01:16 250 7 8.7 6.0
2015-Mar-30 00:56 230 7 8.7 7.0
2015-Mar-30 00:36 120 5 8.7 7.0
2015-Mar-30 00:16 130 10 8.7 7.0
2015-Mar-29 23:56 140 12 8.7 7.0
2015-Mar-29 23:36 140 12 8.7 8.0
2015-Mar-29 23:16 130 14 gusting 18 8.7 8.0
2015-Mar-29 22:56 140 12 8.7 8.0
2015-Mar-29 22:36 140 16 8.7 8.0
2015-Mar-29 22:16 140 15 gusting 18 8.7 8.0
2015-Mar-29 21:56 150 12 gusting 16 8.7 8.0
2015-Mar-29 21:36 150 11 8.7 8.0
2015-Mar-29 21:16 140 9 8.7 7.0
2015-Mar-29 20:56 140 8 8.7 7.0
2015-Mar-29 20:36 170 7 8.7 7.0
2015-Mar-29 20:16 120 4 8.7 7.0
2015-Mar-29 19:56 8.7 6.0
2015-Mar-29 19:36 050 4 8.7 6.0
2015-Mar-29 19:16 260 3 8.7 6.0
2015-Mar-29 18:56 8.7 7.0
2015-Mar-29 18:36 120 3 8.7 6.0
2015-Mar-29 18:16 340 4 8.7 6.0
2015-Mar-29 17:56 340 5 8.7 5.0
2015-Mar-29 17:36 350 4 8.7 4.0
2015-Mar-29 17:16 340 6 8.7 4.0
2015-Mar-29 16:56 320 3 8.7 4.0
2015-Mar-29 16:36 320 3 8.7 3.0
2015-Mar-29 16:16 8.7 3.0
2015-Mar-29 15:56 340 5 8.7 3.0
2015-Mar-29 15:36 8.7 2.0
2015-Mar-29 15:16 030 4 8.7 2.0
2015-Mar-29 14:56 1.5 1.0
2015-Mar-29 14:36 3.5 2.0
2015-Mar-29 14:16 350 3 8.7 3.0
2015-Mar-29 13:56 8.7 4.0
2015-Mar-29 13:36 150 4 8.7 4.0
2015-Mar-29 13:16 150 3 8.7 5.0
2015-Mar-29 12:56 160 6 8.7 5.0
2015-Mar-29 12:36 140 5 8.7 5.0
2015-Mar-29 12:16 150 5 8.7 5.0
2015-Mar-29 11:56 140 5 8.7 4.0
2015-Mar-29 11:36 8.7 3.0
2015-Mar-29 11:16 360 3 8.7 2.0
2015-Mar-29 10:56 330 6 8.7 2.0
2015-Mar-29 10:36 350 4 8.7 3.0
2015-Mar-29 10:16 020 3 8.7 3.0
2015-Mar-29 09:56 8.7 3.0
2015-Mar-29 09:36 110 3 8.7 3.0
2015-Mar-29 09:16 020 4 8.7 3.0
2015-Mar-29 08:56 340 3 8.7 3.0
2015-Mar-29 08:36 8.7 3.0
2015-Mar-29 08:16 8.7 3.0
2015-Mar-29 07:56 8.7 3.0
2015-Mar-29 07:36 350 3 8.7 3.0
2015-Mar-29 07:16 340 6 8.7 3.0
2015-Mar-29 06:56 340 6 8.7 3.0
2015-Mar-29 06:36 330 4 8.7 3.0
2015-Mar-29 06:16 8.7 3.0
2015-Mar-29 05:56 320 3 8.7 3.0
2015-Mar-29 05:36 340 7 8.7 3.0
2015-Mar-29 05:16 340 6 8.7 3.0
2015-Mar-29 04:56 350 5 8.7 3.0
2015-Mar-29 04:36 320 7 8.7 3.0
2015-Mar-29 04:16 320 8 8.7 3.0
2015-Mar-29 03:56 330 7 8.7 3.0
2015-Mar-29 03:36 330 7 8.7 4.0
2015-Mar-29 03:16 330 6 8.7 4.0
2015-Mar-29 02:56 330 6 8.7 4.0
2015-Mar-29 02:36 330 5 8.7 4.0
2015-Mar-29 02:16 330 5 7.8 4.0
2015-Mar-29 01:56 310 5 8.7 4.0
2015-Mar-29 01:36 310 5 8.7 4.0
2015-Mar-29 01:16 320 7 8.7 5.0
2015-Mar-29 00:56 300 5 8.7 6.0
2015-Mar-29 00:36 300 5 8.7 6.0
2015-Mar-29 00:16 300 5 8.7 6.0
2015-Mar-28 23:56 140 4 8.7 7.0
2015-Mar-28 23:36 100 7 8.7 7.0
2015-Mar-28 23:16 140 7 8.7 7.0
2015-Mar-28 22:56 130 7 8.7 7.0
2015-Mar-28 22:36 100 6 gusting 15 8.7 7.0
2015-Mar-28 22:16 110 4 8.7 8.0
2015-Mar-28 21:56 110 5 8.7 7.0
2015-Mar-28 21:36 120 4 8.7 7.0
2015-Mar-28 21:16 130 6 8.7 7.0
2015-Mar-28 20:56 340 6 8.7 6.0
2015-Mar-28 20:36 340 8 8.7 6.0
2015-Mar-28 20:16 340 6 8.7 5.0
2015-Mar-28 19:56 360 7 8.7 5.0
2015-Mar-28 19:36 300 4 8.7 5.0
2015-Mar-28 19:16 350 4 8.7 5.0
2015-Mar-28 18:56 330 5 8.7 5.0
2015-Mar-28 18:36 330 6 8.7 4.0
2015-Mar-28 18:16 310 5 8.7 4.0
2015-Mar-28 17:56 320 6 8.7 3.0
2015-Mar-28 17:36 330 4 8.7 2.0
2015-Mar-28 17:16 350 4 8.7 2.0
2015-Mar-28 16:56 320 3 8.7 2.0
2015-Mar-28 16:36 8.7 1.0
2015-Mar-28 16:16 8.7 1.0
2015-Mar-28 15:56 8.7 1.0
2015-Mar-28 15:36 8.7 1.0
2015-Mar-28 15:16 330 3 8.7 1.0
2015-Mar-28 14:56 8.7-0.0
2015-Mar-28 14:36 8.7-0.0
2015-Mar-28 14:16 8.7-0.0
2015-Mar-28 13:56 8.7-0.0
2015-Mar-28 13:36 8.7-1.0
2015-Mar-28 13:16 8.7-0.0
2015-Mar-28 12:56 340 3 8.7-0.0
2015-Mar-28 12:36 360 3 4.3-0.0
2015-Mar-28 12:16 350 3 2.6-0.0
2015-Mar-28 11:56 7.8 1.0
2015-Mar-28 11:36 4.3 1.0
2015-Mar-28 11:16 340 3 8.7 1.0
2015-Mar-28 10:56 340 4 8.7 1.0
2015-Mar-28 10:36 360 3 8.7 1.0
2015-Mar-28 10:16 340 3 8.7 2.0
2015-Mar-28 09:56 8.7 2.0
2015-Mar-28 09:36 350 3 8.7 1.0
2015-Mar-28 09:16 8.7 1.0
2015-Mar-28 08:56 8.7 2.0
2015-Mar-28 08:36 8.7 2.0
2015-Mar-28 08:16 8.7 1.0
2015-Mar-28 07:56 8.7 1.0
2015-Mar-28 07:36 8.7 2.0
2015-Mar-28 07:16 8.7 2.0
2015-Mar-28 06:56 040 3 8.7 2.0
2015-Mar-28 06:36 8.7 2.0
2015-Mar-28 06:16 8.7 2.0
2015-Mar-28 05:56 2.6 2.0
2015-Mar-28 05:36 5.2 2.0
2015-Mar-28 05:16 2.6 3.0
2015-Mar-28 04:56 4.3 3.0
2015-Mar-28 04:36 1.7 3.0
2015-Mar-28 04:16 8.7 3.0